Location: Austin
(30.3000°N, 97.7500°W)
Time: 03:28:06
(UTC-06:00)

NOSS 3-3 (C) - Pass Details

Date: 20 November 2023
Orbit: 753 x 1459 km, 63.4° (Epoch: 14 October)

Event Time Altitude Azimuth Distance (km) Brightness Sun altitude
Rises 18:46:48 0° 218° (SW) 3,196 7.6 -16.1°
Reaches altitude 10° 18:49:08 10° 223° (SW) 2,297 6.8 -16.6°
Maximum altitude 18:54:14 58° 302° (WNW) 944 4.1 -17.7°
Enters shadow 18:59:51 11° 21° (NNE) 2,519 5.9 -18.8°
